星链-30588 (STARLINK-30588 )

导读 | 星芒AI

STARLINK-30588 是 SpaceX Starlink 项目中的一颗低轨通信卫星,属于第三代星链卫星(v1.5 或 v2 版本)。它于 2023 年发射,部署在约 550 公里的轨道高度,旨在为全球用户提供高速互联网服务。该卫星采用先进推进系统和激光通信技术,支持更稳定的网络连接与更低延迟。作为 Starlink 卫星群的一部分,它有助于扩大覆盖范围,特别是在偏远和网络基础设施薄弱的地区。

基本信息
目录编号:
58062
目录名称:
STARLINK-30588
国际标识:
2023-158M
轨道中心:
EARTH
卫星名称:
星链-30588
卫星全名:
星链-30588 (STARLINK-30588 )
卫星状态:
在轨 (已飞行799 天)
发射日期:
2023-10-13 UTC
国别 :
美国 (US)
星等 :
--
轨道信息
数据来源 国际轨道数据 AOE轨道数据
星历时间 2025-12-18T17:19:07+0800
1天前
查看轨道信息
2025-12-15T11:00:00+0800
5天前
查看轨道信息
半长轴 6937.246km 6937.217km
偏心率 0.0001148 0.0000014
轨道倾角 43.003° 43.000°
近地点辐角 269.183° 351.377°
升交点赤经 111.915° 129.646°
平近点角 90.888° 337.014°
近地点 558.314km 559.072km
远地点 559.908km 559.092km
周期 95.839分钟 95.838分钟
每日圈数 15.025267 15.025359
详细信息
固有亮度:
5
最大亮度:
0.3
卫星平台:
Starlink v2.0 mini
覆盖范围:
全球
运营商:
太空探索技术公司
运营商所在国:
美国
制造商(研发单位):
太空探索技术公司
制造商所在国:
美国
使用方式:
暂无
卫星简介
星链(Starlink)计划是由太空探索技术公司(SpaceX)提出的一个巨型低轨卫星互联网星座项目,计划在2019年至2024年间在太空搭建由约1.2万颗卫星组成的“星链”网络,其中1584颗将部署在地球上空550千米处的近地轨道,并从2020年开始工作。该卫星仍在工作。
2D轨道图
3D轨道图
轨道高度分析图
轨道倾角分析图
轨道综合分析图
查看轨道综合分析图